GW0496 Weather Reports


time (UTC)temp
C
wind
direction
speed
KPH
gust
KPH
rain 1hr
cm
rain 24hr
cm
rain mn
cm
humidity
%
barometer
mb
20260503223126 11 301 0.0 0.0 0.00 0.51 0.51 38 1006.9
20260503222623 11 315 0.0 0.0 0.00 0.51 0.51 40 1006.7
20260503222121 11 264 0.0 0.0 0.00 0.51 0.51 37 1006.8
20260503221619 12 314 0.0 0.0 0.00 0.51 0.51 38 1006.8
20260503221116 12 272 0.0 0.0 0.00 0.51 0.51 36 1006.5
20260503220613 12 285 0.0 0.0 0.00 0.51 0.51 37 1006.3
20260503220109 12 57 0.0 0.0 0.00 0.51 0.51 39 1006.3
20260503215607 12 230 0.0 1.6 0.00 0.51 0.51 37 1006.3
20260503215103 12 277 0.0 0.0 0.00 0.51 0.51 37 1006.4
20260503214602 12 281 0.0 0.0 0.00 0.51 0.51 38 1006.2
20260503214057 12 59 0.0 0.0 0.00 0.51 0.51 37 1006.2
20260503213556 12 23 0.0 0.0 0.00 0.51 0.51 39 1005.8
20260503213052 12 279 0.0 0.0 0.00 0.51 0.51 39 1006.0
20260503212550 11 324 0.0 0.0 0.00 0.51 0.51 40 1005.9
20260503212047 11 320 0.0 0.0 0.00 0.51 0.51 41 1005.9
20260503211545 11 324 0.0 0.0 0.00 0.51 0.51 41 1005.8
20260503211040 11 346 0.0 0.0 0.00 0.51 0.51 39 1005.9
20260503210537 12 50 0.0 0.0 0.00 0.51 0.51 39 1005.7
20260503210032 12 310 0.0 0.0 0.00 0.51 0.51 39 1005.6
20260503205529 12 262 0.0 0.0 0.00 0.51 0.51 40 1005.5
20260503205026 11 323 0.0 0.0 0.00 0.51 0.51 41 1005.6
20260503204523 11 312 0.0 0.0 0.00 0.51 0.51 41 1005.5
20260503204020 11 298 0.0 0.0 0.00 0.51 0.51 44 1005.6
20260503203517 11 346 0.0 0.0 0.00 0.51 0.51 44 1005.4
20260503203014 11 312 0.0 0.0 0.00 0.51 0.51 43 1005.4
20260503202512 11 321 0.0 0.0 0.00 0.51 0.51 43 1005.4
20260503202010 11 303 0.0 0.0 0.00 0.51 0.51 43 1005.5
20260503201508 11 165 0.0 0.0 0.00 0.51 0.51 43 1005.4
20260503201005 12 292 0.0 0.0 0.00 0.51 0.51 42 1005.0
20260503200500 12 332 0.0 0.0 0.00 0.51 0.51 43 1005.2
20260503195957 12 23 0.0 0.0 0.00 0.51 0.51 41 1005.1
20260503195454 13 302 0.0 0.0 0.00 0.51 0.51 41 1005.2
20260503194951 12 335 0.0 0.0 0.00 0.51 0.51 42 1005.0
20260503194448 12 302 0.0 0.0 0.00 0.51 0.51 42 1005.1
20260503193943 12 316 0.0 0.0 0.00 0.51 0.51 41 1005.1
20260503193439 12 312 0.0 1.6 0.00 0.51 0.51 40 1005.1
20260503192935 12 340 0.0 0.0 0.00 0.51 0.51 44 1004.8
20260503192432 12 344 0.0 0.0 0.00 0.51 0.51 43 1004.9
20260503191927 12 6 0.0 0.0 0.00 0.51 0.51 42 1004.9
20260503191425 12 315 0.0 0.0 0.00 0.51 0.51 43 1005.0
20260503190921 13 332 0.0 0.0 0.00 0.51 0.51 42 1005.1
20260503190419 12 356 0.0 0.0 0.00 0.51 0.51 42 1004.9
20260503185915 12 273 0.0 0.0 0.00 0.51 0.51 42 1005.3
20260503185412 12 280 0.0 0.0 0.00 0.51 0.51 42 1005.4
20260503184911 12 25 0.0 0.0 0.00 0.51 0.51 42 1005.3
20260503184408 11 27 0.0 0.0 0.00 0.51 0.51 45 1005.4
20260503183904 11 311 0.0 0.0 0.00 0.51 0.51 46 1005.6
20260503183401 11 304 0.0 0.0 0.00 0.51 0.51 46 1005.3
20260503182858 11 317 0.0 0.0 0.00 0.51 0.51 45 1005.4
20260503182357 11 17 0.0 0.0 0.00 0.51 0.51 47 1005.4
20260503181853 11 202 1.6 4.8 0.00 0.51 0.51 47 1005.4
20260503181351 11 353 0.0 1.6 0.00 0.51 0.51 49 1005.5
20260503180847 11 321 0.0 3.2 0.00 0.51 0.51 48 1005.4
20260503180345 11 8 0.0 4.8 0.00 0.51 0.51 50 1005.2
20260503175841 12 222 0.0 0.0 0.00 0.51 0.51 49 1005.2
20260503175339 11 230 0.0 0.0 0.00 0.51 0.51 54 1005.2
20260503174835 10 121 0.0 0.0 0.00 0.51 0.51 54 1005.0
20260503174333 11 282 0.0 3.2 0.00 0.51 0.51 57 1005.1
20260503173828 11 286 0.0 0.0 0.00 0.51 0.51 61 1005.2
20260503173325 11 38 0.0 0.0 0.00 0.51 0.51 59 1005.3
20260503172822 11 41 0.0 3.2 0.00 0.51 0.51 58 1005.0
20260503172320 12 335 0.0 3.2 0.00 0.51 0.51 57 1005.0
20260503171815 12 5 0.0 0.0 0.00 0.51 0.51 59 1004.8
20260503171312 11 347 0.0 0.0 0.00 0.51 0.51 62 1005.0
20260503170810 11 92 0.0 0.0 0.00 0.51 0.51 62 1004.9
20260503170306 11 332 0.0 0.0 0.00 0.51 0.51 59 1004.8
20260503150658 11 312 0.0 0.0 0.00 0.51 0.51 57 1004.2
20260503150154 12 56 1.6 11.3 0.00 0.51 0.51 51 1004.0
20260503140119 11 48 0.0 0.0 0.00 0.51 0.51 58 1003.9
20260503131048 10 308 0.0 1.6 0.00 0.51 0.51 69 1004.2
20260503130545 9 12 0.0 0.0 0.00 0.51 0.51 71 1004.3
20260503110436 7 334 0.0 0.0 0.00 0.51 0.51 92 1005.3
20260503090327 7 354 0.0 0.0 0.18 0.51 0.51 90 1005.2
20260503081254 7 289 0.0 0.0 0.18 0.48 0.48 88 1006.1
20260503080750 7 351 0.0 0.0 0.00 0.46 0.46 90 1006.4
20260503080248 7 349 0.0 0.0 0.00 0.46 0.46 90 1006.5
20260503072724 8 339 4.8 11.3 0.13 0.46 0.46 93 1006.7
20260503072221 8 272 0.0 0.0 0.13 0.46 0.46 96 1006.6
20260503071717 8 318 0.0 0.0 0.00 0.43 0.43 97 1006.7
20260503071215 8 292 0.0 0.0 0.00 0.43 0.43 97 1006.5
20260503070711 8 325 0.0 0.0 0.00 0.43 0.43 97 1006.7
20260503070209 8 324 0.0 0.0 0.00 0.43 0.43 97 1006.6
20260503060133 8 16 0.0 0.0 0.13 0.25 0.25 97 1007.4
20260503055125 8 281 0.0 0.0 0.18 0.23 0.23 97 1007.6
20260503054621 8 313 0.0 0.0 0.30 0.23 0.23 98 1007.8
20260503054118 8 312 0.0 0.0 0.13 0.20 0.20 98 1007.7
20260503053616 8 331 0.0 0.0 0.18 0.18 0.18 98 1007.9
20260503053114 8 312 0.0 0.0 0.18 0.18 0.18 97 1008.1
20260503052610 8 336 0.0 0.0 0.18 0.15 0.15 97 1008.0
20260503052107 8 316 0.0 0.0 0.18 0.15 0.15 97 1008.0
20260503051602 8 317 0.0 0.0 0.13 0.13 0.13 97 1007.9
20260503051100 8 328 0.0 0.0 0.13 0.13 0.13 97 1008.0
20260503050555 8 314 0.0 0.0 0.00 0.10 0.10 97 1008.2
20260503050053 8 312 0.0 0.0 0.18 0.10 0.10 97 1008.4
20260503045550 8 312 0.0 0.0 0.18 0.10 0.10 97 1008.3
20260503045047 8 314 0.0 0.0 0.00 0.08 0.08 97 1008.4
20260503044544 8 312 0.0 0.0 0.00 0.08 0.08 97 1008.6
20260503044042 8 305 0.0 0.0 0.13 0.08 0.08 97 1009.0
20260503043537 8 293 0.0 0.0 0.13 0.08 0.08 97 1008.8
20260503043034 8 308 0.0 0.0 0.18 0.05 0.05 97 1008.7
20260503042531 8 316 0.0 0.0 0.18 0.05 0.05 97 1008.8
20260503042027 8 311 0.0 0.0 0.13 0.03 0.03 97 1008.9
20260503041524 8 313 0.0 0.0 0.13 0.03 0.03 97 1008.9
20260503041022 8 310 0.0 0.0 0.13 0.03 0.03 97 1008.9
20260503040519 8 310 0.0 0.0 0.18 0.00 0.00 97 1009.0
20260503040016 8 308 0.0 0.0 0.30 0.97 0.97 97 1009.0
20260503035513 8 314 0.0 0.0 0.30 0.94 0.94 97 1008.8
20260503035011 8 316 0.0 0.0 0.18 0.91 0.91 97 1009.2
20260503034508 8 312 0.0 0.0 0.13 0.89 0.89 97 1009.1
20260503034005 8 313 0.0 0.0 0.13 0.89 0.89 97 1009.0
20260503033502 9 309 0.0 0.0 0.18 0.86 0.86 97 1008.9
20260503033000 9 316 0.0 0.0 0.18 0.86 0.86 97 1009.0
20260503032458 9 316 0.0 0.0 0.13 0.84 0.84 97 1009.0
20260503031956 9 314 0.0 0.0 0.30 0.84 0.84 97 1009.1
20260503031453 9 312 0.0 0.0 0.36 0.81 0.81 97 1009.1
20260503030949 9 312 0.0 0.0 0.30 0.79 0.79 97 1009.2
20260503030446 9 313 0.0 0.0 0.30 0.79 0.79 97 1009.3
20260503025943 9 310 0.0 0.0 0.18 0.74 0.74 97 1009.2
20260503025440 9 303 0.0 0.0 0.30 0.74 0.74 97 1009.1
20260503024938 9 301 0.0 0.0 0.13 0.71 0.71 97 1009.2
20260503024434 9 318 0.0 0.0 0.18 0.69 0.69 97 1009.3
20260503023931 9 314 0.0 0.0 0.18 0.69 0.69 97 1009.2
20260503023428 9 311 0.0 0.0 0.00 0.66 0.66 97 1009.3
20260503022925 9 311 0.0 0.0 0.13 0.66 0.66 96 1009.4
20260503022420 9 322 0.0 0.0 0.13 0.66 0.66 96 1009.7
20260503021916 9 313 0.0 0.0 0.00 0.64 0.64 96 1009.8
20260503021412 8 314 0.0 0.0 0.18 0.64 0.64 96 1009.7
20260503020910 9 306 0.0 0.0 0.30 0.64 0.64 96 1009.9
20260503020408 9 311 0.0 0.0 0.13 0.61 0.61 96 1009.7
20260503015903 9 311 0.0 0.0 0.18 0.58 0.58 96 1010.0
20260503015401 9 311 0.0 0.0 0.30 0.58 0.58 96 1010.3
20260503014856 9 314 0.0 0.0 0.30 0.56 0.56 96 1010.0
20260503014354 9 311 0.0 0.0 0.36 0.53 0.53 96 1010.4
20260503013852 9 312 0.0 0.0 0.48 0.51 0.51 96 1010.1
20260503013348 9 310 0.0 0.0 0.61 0.48 0.48 96 1010.3
20260503012845 9 311 0.0 0.0 0.43 0.43 0.43 96 1010.2
20260503012343 9 312 0.0 0.0 0.30 0.38 0.38 96 1010.1
20260503011840 9 310 0.0 0.0 0.30 0.36 0.36 96 1010.1
20260503011337 9 313 0.0 0.0 0.30 0.33 0.33 96 1010.0
20260503010833 9 319 0.0 0.0 0.30 0.30 0.30 96 1010.1
20260503010331 9 311 0.0 0.0 0.13 0.28 0.28 96 1010.3
20260503005827 9 311 0.0 0.0 0.18 0.25 0.25 96 1010.3
20260503005325 9 311 0.0 0.0 0.30 0.25 0.25 96 1010.0
20260503004821 9 314 0.0 0.0 0.30 0.23 0.23 95 1010.3
20260503004319 9 314 0.0 0.0 0.36 0.20 0.20 95 1010.1
20260503003816 9 323 0.0 0.0 0.18 0.18 0.18 95 1010.1
20260503003313 9 304 0.0 0.0 0.13 0.15 0.15 95 1010.2
20260503002809 9 314 0.0 0.0 0.13 0.15 0.15 95 1010.3
20260503002307 9 307 0.0 0.0 0.00 0.13 0.13 95 1010.5
20260503001803 9 314 0.0 0.0 0.00 0.13 0.13 95 1010.2
20260503001259 9 304 0.0 0.0 0.00 0.13 0.13 95 1010.2
20260503000757 9 311 0.0 0.0 0.18 0.13 0.13 95 1010.1
20260503000254 9 312 0.0 0.0 0.18 0.13 0.13 94 1010.3
20260502235751 9 316 0.0 0.0 0.00 0.10 0.10 94 1010.2
20260502235249 9 304 0.0 0.0 0.00 0.10 0.10 94 1010.4
20260502234745 9 314 0.0 0.0 0.13 0.10 0.10 94 1010.2
20260502234242 9 311 0.0 0.0 0.13 0.10 0.10 93 1010.2
20260502233738 9 314 0.0 0.0 0.18 0.08 0.08 93 1010.0
20260502233235 9 314 0.0 0.0 0.18 0.08 0.08 92 1010.1
20260502232730 9 314 0.0 0.0 0.00 0.05 0.05 92 1010.1
20260502232228 9 314 0.0 0.0 0.13 0.05 0.05 91 1010.2
20260502231725 10 314 0.0 0.0 0.30 0.05 0.05 90 1010.0
20260502231222 10 315 0.0 0.0 0.18 0.03 0.03 90 1010.5
20260502230721 10 332 0.0 0.0 0.00 0.00 0.00 86 1010.2
20260502230219 10 312 0.0 0.0 0.00 0.00 0.00 85 1010.4
20260502225714 10 311 0.0 0.0 0.00 0.00 0.00 83 1010.3
20260502225212 10 310 0.0 0.0 0.00 0.00 0.00 81 1010.2
20260502224708 10 309 0.0 0.0 0.00 0.00 0.00 80 1010.0
20260502224205 10 307 0.0 0.0 0.00 0.00 0.00 80 1010.0
20260502223702 10 311 0.0 0.0 0.00 0.00 0.00 80 1010.0